﻿_id,日時,平均風速(m/s),平均風向,最大瞬間風速(m/s),最大風速時風向,気温(℃),湿度(%),10分間移動積算雨量(mm),1時間移動積算雨量(mm),日雨量(mm),累計雨量(mm)
1,2023-03-13T00:00:00,4.4,南,10.7,南南東,15,74.2,0,0,0,0
2,2023-03-13T00:01:00,4.3,南,8.5,南南東,15,74.9,0,0,0,0
3,2023-03-13T00:02:00,4.2,南,7.6,南南西,14.9,75.2,0,0,0,0
4,2023-03-13T00:03:00,4.4,南,8.9,南南西,14.8,75.9,0,0,0,0
5,2023-03-13T00:04:00,4.4,南,8.9,南南西,14.6,77.4,0.5,0.5,0.5,0.5
6,2023-03-13T00:05:00,4.4,南,8.9,南南西,14.5,79,0.5,0.5,0.5,0.5
7,2023-03-13T00:06:00,4.1,南,8.9,南南西,14.2,80.7,1,1,1,1
8,2023-03-13T00:07:00,4,南,8.9,南南西,14.1,83.1,1,1,1,1
9,2023-03-13T00:08:00,3.8,南,8.9,南南西,14.1,85.3,1,1,1,1
10,2023-03-13T00:09:00,3.8,南,8.9,南南西,14.1,86.4,1,1,1,1
11,2023-03-13T00:10:00,3.8,南,9.1,南南西,14,87.1,1,1,1,1
12,2023-03-13T00:11:00,3.9,南,9.1,南南西,14.2,87.9,1,1,1,1
13,2023-03-13T00:12:00,3.8,南,9.1,南南西,14.3,87.1,1,1,1,1
14,2023-03-13T00:13:00,3.7,南,9.1,南南西,14.3,86.3,1,1,1,1
15,2023-03-13T00:14:00,3.7,南,9.1,南南西,14.3,86.4,0.5,1,1,1
16,2023-03-13T00:15:00,3.8,南,9.1,南南西,14.3,86.2,0.5,1,1,1
17,2023-03-13T00:16:00,3.9,南,9.1,南南西,14.3,86.2,0,1,1,1
18,2023-03-13T00:17:00,3.9,南,9.1,南南西,14.2,86.3,0.5,1.5,1.5,1.5
19,2023-03-13T00:18:00,4,南,9.1,南南西,14.2,86.6,0.5,1.5,1.5,1.5
20,2023-03-13T00:19:00,4,南,9.1,南南西,14.2,87,0.5,1.5,1.5,1.5
21,2023-03-13T00:20:00,3.8,南,9.1,南,14.2,87.6,0.5,1.5,1.5,1.5
22,2023-03-13T00:21:00,3.4,南,7.1,南,14.2,88.1,0.5,1.5,1.5,1.5
23,2023-03-13T00:22:00,3.3,南,7,南南西,14.3,88.2,0.5,1.5,1.5,1.5
24,2023-03-13T00:23:00,3.3,南,6.8,南南西,14.3,87.5,0.5,1.5,1.5,1.5
25,2023-03-13T00:24:00,3.4,南,7.1,南,14.3,87.2,0.5,1.5,1.5,1.5
26,2023-03-13T00:25:00,3.3,南,7.3,南東,14.5,86.9,0.5,1.5,1.5,1.5
27,2023-03-13T00:26:00,3.2,南,7.3,南東,14.4,85.6,0.5,1.5,1.5,1.5
28,2023-03-13T00:27:00,3.3,南,7.3,南東,14.5,85.3,0,1.5,1.5,1.5
29,2023-03-13T00:28:00,3.4,南,7.3,南東,14.4,85.1,0,1.5,1.5,1.5
30,2023-03-13T00:29:00,3.3,南,7.3,南東,14.3,85.5,0,1.5,1.5,1.5
31,2023-03-13T00:30:00,3.5,南,9.4,南,14.4,86.4,0,1.5,1.5,1.5
32,2023-03-13T00:31:00,3.7,南,9.4,南,14.6,85.9,0,1.5,1.5,1.5
33,2023-03-13T00:32:00,3.8,南,9.4,南,14.7,84.1,0,1.5,1.5,1.5
34,2023-03-13T00:33:00,3.7,南,9.4,南,14.6,83.1,0,1.5,1.5,1.5
35,2023-03-13T00:34:00,3.5,南,9.4,南,14.5,83.2,0,1.5,1.5,1.5
36,2023-03-13T00:35:00,3.6,南,9.4,南,14.6,83.5,0,1.5,1.5,1.5
37,2023-03-13T00:36:00,3.6,南,9.4,南,14.6,82.6,0,1.5,1.5,1.5
38,2023-03-13T00:37:00,3.5,南,9.4,南,14.5,82.8,0,1.5,1.5,1.5
39,2023-03-13T00:38:00,3.5,南,9.4,南,14.5,83.4,0,1.5,1.5,1.5
40,2023-03-13T00:39:00,3.6,南,9.4,南,14.6,83.5,0,1.5,1.5,1.5
41,2023-03-13T00:40:00,3.5,南,7.9,南南西,14.8,82.5,0,1.5,1.5,1.5
42,2023-03-13T00:41:00,3.4,南,7.9,南南西,14.9,81.4,0,1.5,1.5,1.5
43,2023-03-13T00:42:00,3.5,南,7.9,南南西,14.8,80.6,0,1.5,1.5,1.5
44,2023-03-13T00:43:00,3.8,南,8.8,南南西,14.9,80.3,0,1.5,1.5,1.5
45,2023-03-13T00:44:00,4,南,8.9,南,14.9,79.3,0,1.5,1.5,1.5
46,2023-03-13T00:45:00,4,南,8.9,南,14.8,79.3,0,1.5,1.5,1.5
47,2023-03-13T00:46:00,4.5,南,12.1,南南西,15.1,79.3,0,1.5,1.5,1.5
48,2023-03-13T00:47:00,4.8,南,12.1,南南西,15.2,77,0,1.5,1.5,1.5
49,2023-03-13T00:48:00,4.9,南,12.1,南南西,15.2,76.1,0,1.5,1.5,1.5
50,2023-03-13T00:49:00,5,南,12.1,南南西,15.1,76.3,0,1.5,1.5,1.5
51,2023-03-13T00:50:00,5.1,南,12.1,南南西,15.1,76.8,0,1.5,1.5,1.5
52,2023-03-13T00:51:00,5.1,南,12.1,南南西,15.1,77,0,1.5,1.5,1.5
53,2023-03-13T00:52:00,5.1,南,12.1,南南西,15.1,77,0,1.5,1.5,1.5
54,2023-03-13T00:53:00,5,南,12.1,南南西,15.2,76.2,0,1.5,1.5,1.5
55,2023-03-13T00:54:00,4.8,南,12.1,南南西,15,76.3,0,1.5,1.5,1.5
56,2023-03-13T00:55:00,4.8,南,12.1,南南西,15.1,77.2,0,1.5,1.5,1.5
57,2023-03-13T00:56:00,4.4,南,8.3,南南西,15.2,76.2,0,1.5,1.5,1.5
58,2023-03-13T00:57:00,4.1,南,8.3,南南西,15.3,75,0,1.5,1.5,1.5
59,2023-03-13T00:58:00,4.1,南,8.3,南南西,15.2,74.5,0,1.5,1.5,1.5
60,2023-03-13T00:59:00,4,南,8.3,南南西,15.1,75.3,0,1.5,1.5,1.5
61,2023-03-13T01:00:00,3.9,南,8.3,南南西,15.2,75.3,0,1.5,1.5,1.5
62,2023-03-13T01:01:00,4.1,南,10.4,南,15.3,74.4,0,1.5,1.5,1.5
63,2023-03-13T01:02:00,4,南,10.4,南,15.3,73.4,0,1.5,1.5,1.5
64,2023-03-13T01:03:00,4.2,南,10.4,南,15.4,73.3,0,1.5,1.5,1.5
65,2023-03-13T01:04:00,4.5,南,10.4,南,15.3,73.3,0,1,1.5,1.5
66,2023-03-13T01:05:00,4.5,南,10.4,南,15.3,74,0,1,1.5,1.5
67,2023-03-13T01:06:00,4.6,南,10.4,南,15.3,74,0,0.5,1.5,1.5
68,2023-03-13T01:07:00,4.8,南,10.4,南,15.1,74.6,0,0.5,1.5,1.5
69,2023-03-13T01:08:00,4.8,南,10.4,南,15.2,75.1,0,0.5,1.5,1.5
70,2023-03-13T01:09:00,4.9,南,10.4,南,15.2,74.9,0,0.5,1.5,1.5
71,2023-03-13T01:10:00,4.9,南,10.4,南,15.3,75.1,0,0.5,1.5,1.5
72,2023-03-13T01:11:00,4.7,南,9.7,南,15.5,73.9,0,0.5,1.5,1.5
73,2023-03-13T01:12:00,4.8,南,9.7,南,15.4,73,0,0.5,1.5,1.5
74,2023-03-13T01:13:00,4.7,南,9.7,南,15.3,73.4,0,0.5,1.5,1.5
75,2023-03-13T01:14:00,4.6,南,9.4,南南東,15.3,73.6,0,0.5,1.5,1.5
76,2023-03-13T01:15:00,4.5,南,9.4,南南東,15.3,73.4,0,0.5,1.5,1.5
77,2023-03-13T01:16:00,4.3,南,8.8,南南東,15.3,73.7,0,0.5,1.5,1.5
78,2023-03-13T01:17:00,4.3,南,8.8,南南東,15.3,74.1,0,0,1.5,1.5
79,2023-03-13T01:18:00,4.2,南,8.8,南南東,15.4,73.2,0,0,1.5,1.5
80,2023-03-13T01:19:00,4.2,南,8.8,南南東,15.4,72.7,0,0,1.5,1.5
81,2023-03-13T01:20:00,4.2,南,8.2,南南東,15.3,73.2,0,0,1.5,1.5
82,2023-03-13T01:21:00,4,南,8,南西,15.4,73.2,0,0,1.5,1.5
83,2023-03-13T01:22:00,3.9,南,8,南西,15.4,72.8,0,0,1.5,1.5
84,2023-03-13T01:23:00,3.9,南,8,南西,15.5,72.2,0,0,1.5,1.5
85,2023-03-13T01:24:00,3.7,南,8,南西,15.4,72,0,0,1.5,1.5
86,2023-03-13T01:25:00,4,南,9.8,南,15.5,72.4,0,0,1.5,1.5
87,2023-03-13T01:26:00,4.1,南,9.8,南,15.6,71.5,0,0,1.5,1.5
88,2023-03-13T01:27:00,4.1,南,9.8,南,15.5,71.3,0,0,1.5,1.5
89,2023-03-13T01:28:00,4,南,9.8,南,15.6,71.2,0,0,1.5,1.5
90,2023-03-13T01:29:00,3.8,南,9.8,南,15.5,71.3,0,0,1.5,1.5
91,2023-03-13T01:30:00,3.5,南,9.8,南,15.4,71.8,0,0,1.5,1.5
92,2023-03-13T01:31:00,3.5,南,9.8,南,15.3,72.4,0,0,1.5,1.5
93,2023-03-13T01:32:00,3.5,南,9.8,南,15.3,73.5,0,0,1.5,1.5
94,2023-03-13T01:33:00,3.4,南南東,9.8,南,15.5,72.9,0,0,1.5,1.5
95,2023-03-13T01:34:00,3.1,南南東,9.8,南,15.6,71.9,0,0,1.5,1.5
96,2023-03-13T01:35:00,2.8,南南東,7.7,南東,15.6,71.2,0,0,1.5,1.5
97,2023-03-13T01:36:00,2.7,南南東,7.3,南南東,15.6,70.8,0,0,1.5,1.5
98,2023-03-13T01:37:00,2.8,南南東,10,南,15.6,70.9,0,0,1.5,1.5
99,2023-03-13T01:38:00,3,南南東,10,南,15.7,70.6,0,0,1.5,1.5
100,2023-03-13T01:39:00,3.4,南南東,11.4,南南東,16,69.1,0,0,1.5,1.5
101,2023-03-13T01:40:00,3.7,南南東,11.4,南南東,15.9,68.3,0,0,1.5,1.5
102,2023-03-13T01:41:00,3.7,南南東,11.4,南南東,15.8,68.5,0,0,1.5,1.5
103,2023-03-13T01:42:00,4,南南東,11.4,南南東,15.9,68.6,0,0,1.5,1.5
104,2023-03-13T01:43:00,4.4,南南東,11.4,南南東,15.8,68.6,0,0,1.5,1.5
105,2023-03-13T01:44:00,4.7,南南東,11.4,南南東,15.7,69.2,0,0,1.5,1.5
106,2023-03-13T01:45:00,5,南南東,11.4,南南東,15.9,69.2,0,0,1.5,1.5
107,2023-03-13T01:46:00,5.2,南南東,11.4,南南東,16,68.3,0,0,1.5,1.5
108,2023-03-13T01:47:00,5.2,南南東,11.4,南南東,15.9,67.9,0,0,1.5,1.5
109,2023-03-13T01:48:00,5,南南東,11.4,南南東,15.8,68.3,0,0,1.5,1.5
110,2023-03-13T01:49:00,4.8,南南東,10.1,南,15.7,69,0,0,1.5,1.5
111,2023-03-13T01:50:00,4.9,南南東,10.1,南,15.7,69.7,0,0,1.5,1.5
112,2023-03-13T01:51:00,5.1,南南東,10.1,南,15.8,69.8,0,0,1.5,1.5
113,2023-03-13T01:52:00,4.9,南南東,10.1,南,15.8,69.9,0,0,1.5,1.5
114,2023-03-13T01:53:00,4.8,南南東,10.1,南,15.8,70.2,0,0,1.5,1.5
115,2023-03-13T01:54:00,4.9,南南東,9.9,南東,15.8,70.4,0,0,1.5,1.5
116,2023-03-13T01:55:00,4.8,南南東,9.8,南東,15.7,70.5,0,0,1.5,1.5
117,2023-03-13T01:56:00,4.5,南南東,9.6,南,15.6,71.4,0,0,1.5,1.5
118,2023-03-13T01:57:00,4.2,南南東,9.6,南,15.6,72,0,0,1.5,1.5
119,2023-03-13T01:58:00,4.1,南南東,9.6,南,15.5,72.4,0,0,1.5,1.5
120,2023-03-13T01:59:00,4.1,南南東,9.6,南,15.5,72.9,0,0,1.5,1.5
121,2023-03-13T02:00:00,4,南南東,9.5,南南東,15.4,73.7,0,0,1.5,1.5
122,2023-03-13T02:01:00,4,南東,8.9,南南東,15.2,74.5,0,0,1.5,1.5
123,2023-03-13T02:02:00,3.9,南東,8.9,南南東,15.1,75.7,0,0,1.5,1.5
124,2023-03-13T02:03:00,3.8,南東,8.9,南南東,15.2,76.5,0,0,1.5,1.5
125,2023-03-13T02:04:00,3.7,南東,9.8,南南東,15.3,76.5,0,0,1.5,1.5
126,2023-03-13T02:05:00,3.6,南東,9.8,南南東,15.3,76.3,0,0,1.5,1.5
127,2023-03-13T02:06:00,3.7,南東,9.8,南南東,15.3,76.1,0,0,1.5,1.5
128,2023-03-13T02:07:00,4,南東,9.8,南南東,15.4,75.7,0,0,1.5,1.5
129,2023-03-13T02:08:00,4.3,南東,9.8,南南東,15.4,75.3,0,0,1.5,1.5
130,2023-03-13T02:09:00,4.3,南南東,10.1,南東,15.3,75.3,0,0,1.5,1.5
131,2023-03-13T02:10:00,4.3,南南東,10.1,南東,15.3,76.1,0,0,1.5,1.5
132,2023-03-13T02:11:00,4.3,南南東,10.1,南東,15.4,76.1,0,0,1.5,1.5
133,2023-03-13T02:12:00,4.3,南南東,10.1,南東,15.3,75.9,0,0,1.5,1.5
134,2023-03-13T02:13:00,4.2,南南東,10.1,南東,15.2,76.3,0,0,1.5,1.5
135,2023-03-13T02:14:00,4.1,南南東,10.1,南東,15.2,77.1,0,0,1.5,1.5
136,2023-03-13T02:15:00,3.9,南南東,10.1,南東,15.1,77.5,0,0,1.5,1.5
137,2023-03-13T02:16:00,3.8,南南東,10.1,南東,14.9,78.5,0,0,1.5,1.5
138,2023-03-13T02:17:00,3.6,南南東,10.1,南東,14.7,80.5,0.5,0.5,2,2
139,2023-03-13T02:18:00,3.4,南南東,10.1,南東,14.8,82,0.5,0.5,2,2
140,2023-03-13T02:19:00,3.1,南南東,10.1,南東,14.7,82.5,0.5,0.5,2,2
141,2023-03-13T02:20:00,2.7,南南東,10.1,南東,14.4,83.5,0.5,0.5,2,2
142,2023-03-13T02:21:00,2.4,南南東,10.1,南東,14.2,85.3,0.5,0.5,2,2
143,2023-03-13T02:22:00,2.2,南南東,10.1,南東,14.1,87.7,1,1,2.5,2.5
144,2023-03-13T02:23:00,2,南南東,10.1,南東,14.1,90.4,1,1,2.5,2.5
145,2023-03-13T02:24:00,1.9,南南東,5,南東,14,91.8,1,1,2.5,2.5
146,2023-03-13T02:25:00,2.4,南南東,12.5,北北東,13.9,93.7,1,1,2.5,2.5
147,2023-03-13T02:26:00,2.8,南南東,12.7,北北東,12.6,87,1,1,2.5,2.5
148,2023-03-13T02:27:00,3,東南東,12.7,北北東,12,85.3,0.5,1,2.5,2.5
149,2023-03-13T02:28:00,3.2,北北東,12.7,北北東,11.7,88.4,0.5,1,2.5,2.5
150,2023-03-13T02:29:00,3.3,北,12.7,北北東,11.4,90.6,0.5,1,2.5,2.5
151,2023-03-13T02:30:00,3.5,北,12.7,北北東,11.2,93.1,0.5,1,2.5,2.5
152,2023-03-13T02:31:00,3.7,北北東,12.7,北北東,11,95,0.5,1,2.5,2.5
153,2023-03-13T02:32:00,4.2,北北東,12.7,北北東,10.7,95.6,0.5,1.5,3,3
154,2023-03-13T02:33:00,4.5,北北東,12.7,北北東,10.5,96,0.5,1.5,3,3
155,2023-03-13T02:34:00,5,北北東,12.7,北北東,10.4,97,1,2,3.5,3.5
156,2023-03-13T02:35:00,4.8,北北東,12.7,北北東,10.3,97.5,1,2,3.5,3.5
157,2023-03-13T02:36:00,4.5,北北東,9.9,北北東,10.3,98,1,2,3.5,3.5
158,2023-03-13T02:37:00,4.5,北北東,9.9,北北東,10.2,98.3,1.5,2.5,4,4
159,2023-03-13T02:38:00,4.5,北北東,9.9,北北東,10.1,98.4,1.5,2.5,4,4
160,2023-03-13T02:39:00,4.6,北北東,9.9,北北東,9.9,98.6,1.5,2.5,4,4
161,2023-03-13T02:40:00,4.8,北北東,9.9,北北東,9.8,98.7,2,3,4.5,4.5
162,2023-03-13T02:41:00,5,北北東,9.9,北北東,9.8,98.8,2,3,4.5,4.5
163,2023-03-13T02:42:00,4.9,北北東,9.9,北北東,9.7,98.9,1.5,3,4.5,4.5
164,2023-03-13T02:43:00,4.9,北北東,9.9,北北東,9.7,99,1.5,3,4.5,4.5
165,2023-03-13T02:44:00,4.6,北北東,8,北北東,9.7,99.1,1,3,4.5,4.5
166,2023-03-13T02:45:00,4.5,北北東,7.5,北北東,9.6,99.2,1,3,4.5,4.5
167,2023-03-13T02:46:00,4.7,北北東,7.5,北北東,9.6,99.3,1,3,4.5,4.5
168,2023-03-13T02:47:00,4.7,北北東,7.5,北北東,9.6,99.4,0.5,3,4.5,4.5
169,2023-03-13T02:48:00,4.6,北北東,7.5,北北東,9.6,99.5,0.5,3,4.5,4.5
170,2023-03-13T02:49:00,4.5,北東,7.5,北北東,9.7,99.5,1,3.5,5,5
171,2023-03-13T02:50:00,4.3,北東,7.5,北北東,9.7,99.7,0.5,3.5,5,5
172,2023-03-13T02:51:00,3.9,北東,7,北東,9.8,99.7,0.5,3.5,5,5
173,2023-03-13T02:52:00,3.6,北東,7,北東,9.7,99.7,0.5,3.5,5,5
174,2023-03-13T02:53:00,3.3,北東,7,北東,9.5,99.5,0.5,3.5,5,5
175,2023-03-13T02:54:00,3.2,北東,7,北東,9.5,99.5,1,4,5.5,5.5
176,2023-03-13T02:55:00,3,北東,7,北東,9.5,99.6,1,4,5.5,5.5
177,2023-03-13T02:56:00,2.9,北北東,6.1,北東,9.5,99.6,1.5,4.5,6,6
178,2023-03-13T02:57:00,2.6,北北東,6.1,北東,9.4,99.6,2,5,6.5,6.5
179,2023-03-13T02:58:00,2.5,北北東,6.1,北東,9.4,99.7,2,5,6.5,6.5
180,2023-03-13T02:59:00,2.4,北北東,6.1,北東,9.3,99.7,2,5.5,7,7
181,2023-03-13T03:00:00,2.5,北北東,6,北東,9.3,99.6,2.5,6,7.5,7.5
182,2023-03-13T03:01:00,2.6,北,6,北東,9.2,99.6,2.5,6,7.5,7.5
183,2023-03-13T03:02:00,2.7,北北東,6,北東,9.3,99.7,3,6.5,8,8
184,2023-03-13T03:03:00,2.8,北北東,6,北東,9.3,99.8,3,6.5,8,8
185,2023-03-13T03:04:00,2.7,北北東,6,北東,9.3,99.8,2.5,6.5,8,8
186,2023-03-13T03:05:00,2.7,北北東,6,北東,9.3,99.8,3,7,8.5,8.5
187,2023-03-13T03:06:00,2.6,北北東,5.7,北北東,9.3,99.8,2.5,7,8.5,8.5
188,2023-03-13T03:07:00,2.9,北北東,6.5,北東,9.2,99.8,2,7,8.5,8.5
189,2023-03-13T03:08:00,3,北北東,6.5,北東,9.2,99.8,2.5,7.5,9,9
190,2023-03-13T03:09:00,2.9,北北東,6.5,北東,9.2,99.8,2,7.5,9,9
191,2023-03-13T03:10:00,2.7,北北東,6.5,北東,9.2,99.8,1.5,7.5,9,9
192,2023-03-13T03:11:00,2.6,北東,6.5,北東,9.2,99.9,1.5,7.5,9,9
193,2023-03-13T03:12:00,2.5,北東,6.5,北東,9.2,99.9,1,7.5,9,9
194,2023-03-13T03:13:00,2.4,北東,6.5,北東,9.2,99.8,1.5,8,9.5,9.5
195,2023-03-13T03:14:00,2.6,北東,6.5,北東,9.2,99.8,1.5,8,9.5,9.5
196,2023-03-13T03:15:00,2.8,北東,6.5,北東,9.2,99.9,1,8,9.5,9.5
197,2023-03-13T03:16:00,2.8,北東,6.5,北東,9.2,99.9,1,8,9.5,9.5
198,2023-03-13T03:17:00,2.8,北東,5.7,北東,9.2,99.8,1,7.5,9.5,9.5
199,2023-03-13T03:18:00,2.6,北東,4.8,北東,9.1,99.8,0.5,7.5,9.5,9.5
200,2023-03-13T03:19:00,2.8,北東,4.8,北東,9.1,99.9,0.5,7.5,9.5,9.5
201,2023-03-13T03:20:00,2.9,北北東,4.8,北東,9.1,99.9,0.5,7.5,9.5,9.5
202,2023-03-13T03:21:00,2.8,北北東,4.8,北東,9.2,99.9,0.5,7.5,9.5,9.5
203,2023-03-13T03:22:00,2.8,北北東,4.8,北東,9.1,99.9,0.5,7,9.5,9.5
204,2023-03-13T03:23:00,2.7,北北東,4.8,北東,9,99.9,0,7,9.5,9.5
205,2023-03-13T03:24:00,2.6,北北東,4.8,北東,9,99.9,0,7,9.5,9.5
206,2023-03-13T03:25:00,2.4,北北東,4.8,北東,9,99.9,0,7,9.5,9.5
207,2023-03-13T03:26:00,2.2,北北東,4.6,北北東,9,100,0.5,7.5,10,10
208,2023-03-13T03:27:00,1.9,北北東,4.1,北,9.1,100,0.5,7.5,10,10
209,2023-03-13T03:28:00,1.9,北北東,4,北東,9,100,0.5,7.5,10,10
210,2023-03-13T03:29:00,1.9,北北東,4,北東,9,100,0.5,7.5,10,10
211,2023-03-13T03:30:00,1.9,北北東,4.8,北東,9.1,100,0.5,7.5,10,10
212,2023-03-13T03:31:00,2.2,北北東,5.8,東北東,9.2,100,0.5,7.5,10,10
213,2023-03-13T03:32:00,2.4,北北東,5.8,東北東,9.1,100,0.5,7,10,10
214,2023-03-13T03:33:00,2.4,北東,5.8,東北東,9.3,100,1,7.5,10.5,10.5
215,2023-03-13T03:34:00,2.4,北東,5.8,東北東,9.2,100,1,7,10.5,10.5
216,2023-03-13T03:35:00,2.3,北東,5.8,東北東,9.1,100,1,7,10.5,10.5
217,2023-03-13T03:36:00,2.4,北東,5.8,東北東,9,99.9,0.5,7,10.5,10.5
218,2023-03-13T03:37:00,2.6,北東,5.8,東北東,9.1,99.8,0.5,6.5,10.5,10.5
219,2023-03-13T03:38:00,2.6,北東,5.8,東北東,9.1,99.8,0.5,6.5,10.5,10.5
220,2023-03-13T03:39:00,2.5,東北東,5.8,東北東,9.2,99.9,1,7,11,11
221,2023-03-13T03:40:00,2.3,東北東,5.8,東北東,9.2,99.9,1,6.5,11,11
222,2023-03-13T03:41:00,2.1,東北東,4.5,東,9.3,100,1,6.5,11,11
223,2023-03-13T03:42:00,1.9,東北東,4.4,北東,9.3,99.9,1,6.5,11,11
224,2023-03-13T03:43:00,1.8,東北東,4.4,北東,9.2,99.9,0.5,6.5,11,11
225,2023-03-13T03:44:00,1.8,東北東,4.4,北東,9.2,99.8,0.5,6.5,11,11
226,2023-03-13T03:45:00,1.9,東北東,4.4,北東,9.2,99.8,0.5,6.5,11,11
227,2023-03-13T03:46:00,1.9,東北東,4.4,北東,9.2,99.9,0.5,6.5,11,11
228,2023-03-13T03:47:00,1.7,東北東,4.3,東北東,9,99.8,0.5,6.5,11,11
229,2023-03-13T03:48:00,1.8,東北東,4.3,東北東,9.1,99.8,1,7,11.5,11.5
230,2023-03-13T03:49:00,1.8,東北東,4.3,東北東,9.1,99.8,0.5,6.5,11.5,11.5
231,2023-03-13T03:50:00,1.8,東北東,4.3,東北東,9.1,99.9,0.5,6.5,11.5,11.5
232,2023-03-13T03:51:00,1.8,北東,4.3,東北東,9.2,99.9,0.5,6.5,11.5,11.5
233,2023-03-13T03:52:00,1.9,北東,4.3,東北東,9.2,100,0.5,6.5,11.5,11.5
234,2023-03-13T03:53:00,2,北東,4.3,東北東,9.2,100,0.5,6.5,11.5,11.5
235,2023-03-13T03:54:00,2.1,北東,4.3,東北東,9.2,100,0.5,6,11.5,11.5
236,2023-03-13T03:55:00,1.9,北東,3.8,東北東,9.2,99.9,0.5,6,11.5,11.5
237,2023-03-13T03:56:00,1.9,北東,3.8,東北東,9.2,99.9,0.5,5.5,11.5,11.5
238,2023-03-13T03:57:00,2,北東,4.5,東北東,9.2,99.9,0.5,5,11.5,11.5
239,2023-03-13T03:58:00,2.1,北東,4.5,東北東,9.2,99.8,0,5,11.5,11.5
240,2023-03-13T03:59:00,2.1,北東,4.5,東北東,9.2,99.8,0,4.5,11.5,11.5
241,2023-03-13T04:00:00,2.1,北東,4.5,東北東,9.1,99.7,0,4,11.5,11.5
242,2023-03-13T04:01:00,2.2,北東,4.5,東北東,9.1,99.6,0,4,11.5,11.5
243,2023-03-13T04:02:00,2.1,北東,4.5,東北東,9.1,99.6,0,3.5,11.5,11.5
244,2023-03-13T04:03:00,2.1,北東,4.5,東北東,9.1,99.6,0,3.5,11.5,11.5
245,2023-03-13T04:04:00,2,北東,4.5,東北東,9.2,99.6,0,3.5,11.5,11.5
246,2023-03-13T04:05:00,1.9,北東,4.5,東北東,9.2,99.6,0.5,3.5,12,12
247,2023-03-13T04:06:00,1.7,北東,4.5,東北東,9.3,99.6,0.5,3.5,12,12
248,2023-03-13T04:07:00,1.6,北東,3.9,北東,9.1,99.6,0.5,3.5,12,12
249,2023-03-13T04:08:00,1.4,北東,3.9,北東,9,99.4,0.5,3,12,12
250,2023-03-13T04:09:00,1.3,北東,3.9,北東,8.9,99.5,0.5,3,12,12
251,2023-03-13T04:10:00,1.3,北東,3,北東,8.9,99.5,0.5,3,12,12
252,2023-03-13T04:11:00,1.2,北東,3,北東,8.9,99.6,0.5,3,12,12
253,2023-03-13T04:12:00,1.1,北東,2.5,東北東,8.8,99.6,0.5,3,12,12
254,2023-03-13T04:13:00,1,北北西,2.4,西南西,8.8,99.7,0.5,2.5,12,12
255,2023-03-13T04:14:00,0.8,西,2.4,西南西,8.9,99.8,0.5,2.5,12,12
256,2023-03-13T04:15:00,0.8,西,2.4,西南西,8.9,99.9,0,2.5,12,12
257,2023-03-13T04:16:00,0.8,西南西,2.4,西南西,9,100,0,2.5,12,12
258,2023-03-13T04:17:00,0.7,南西,2.4,西南西,9,100,0,2.5,12,12
259,2023-03-13T04:18:00,0.7,南西,2.4,西南西,9,100,0.5,3,12.5,12.5
260,2023-03-13T04:19:00,0.8,南西,2.4,西南西,8.9,100,0.5,3,12.5,12.5
261,2023-03-13T04:20:00,0.7,南西,2.4,西南西,8.9,100,0.5,3,12.5,12.5
262,2023-03-13T04:21:00,0.5,西南西,1.6,南南西,9,100,0.5,3,12.5,12.5
263,2023-03-13T04:22:00,0.5,西南西,1.6,南南西,8.8,100,0.5,3,12.5,12.5
264,2023-03-13T04:23:00,0.4,西南西,1.6,南南西,8.8,100,0.5,3,12.5,12.5
265,2023-03-13T04:24:00,0.4,西,1.6,南南西,8.8,100,0.5,3,12.5,12.5
266,2023-03-13T04:25:00,0.4,西,1.6,南南西,8.9,100,0.5,3,12.5,12.5
267,2023-03-13T04:26:00,0.5,西北西,2,北,8.8,100,0.5,2.5,12.5,12.5
268,2023-03-13T04:27:00,0.6,西北西,2,北,8.8,100,0.5,2.5,12.5,12.5
269,2023-03-13T04:28:00,0.5,北西,2,北,8.8,100,0.5,3,13,13
270,2023-03-13T04:29:00,0.4,北北西,2,北,8.8,100,0.5,3,13,13
271,2023-03-13T04:30:00,0.4,北北西,2,北,8.9,100,0.5,3,13,13
272,2023-03-13T04:31:00,0.4,北,2,北,8.9,100,0.5,3,13,13
273,2023-03-13T04:32:00,0.4,北,2,北,8.9,100,0.5,3,13,13
274,2023-03-13T04:33:00,0.5,北,2,北,8.9,100,0.5,2.5,13,13
275,2023-03-13T04:34:00,0.5,北,2,北,8.8,100,0.5,2.5,13,13
276,2023-03-13T04:35:00,0.5,北北東,2,北,8.8,100,0.5,2.5,13,13
277,2023-03-13T04:36:00,0.4,北北東,1.6,北,8.7,100,0.5,2.5,13,13
278,2023-03-13T04:37:00,0.4,北東,1.6,北,8.7,100,1,3,13.5,13.5
279,2023-03-13T04:38:00,0.4,北北東,1.6,北,8.8,100,0.5,3,13.5,13.5
280,2023-03-13T04:39:00,0.4,北北東,1.6,北,8.9,100,0.5,2.5,13.5,13.5
281,2023-03-13T04:40:00,0.5,北北東,1.6,北,8.8,100,0.5,2.5,13.5,13.5
282,2023-03-13T04:41:00,0.5,北北東,1.6,北,8.8,100,0.5,2.5,13.5,13.5
283,2023-03-13T04:42:00,0.5,北北東,1.9,北,8.8,100,0.5,2.5,13.5,13.5
284,2023-03-13T04:43:00,0.5,北東,2,北東,8.9,100,0.5,2.5,13.5,13.5
285,2023-03-13T04:44:00,0.6,北東,2.3,北北東,9,100,0.5,2.5,13.5,13.5
286,2023-03-13T04:45:00,0.7,北東,2.3,北北東,8.8,100,0.5,2.5,13.5,13.5
287,2023-03-13T04:46:00,0.7,北北東,2.3,北北東,8.8,100,0.5,2.5,13.5,13.5
288,2023-03-13T04:47:00,0.7,北北東,2.3,北北東,8.8,100,0,2.5,13.5,13.5
289,2023-03-13T04:48:00,0.8,北北東,2.3,北北東,8.8,100,0,2,13.5,13.5
290,2023-03-13T04:49:00,0.8,北,2.3,北北東,8.8,100,0,2,13.5,13.5
291,2023-03-13T04:50:00,0.9,北,2.3,北北東,8.7,100,0,2,13.5,13.5
292,2023-03-13T04:51:00,1,北西,2.3,北北東,8.7,100,0,2,13.5,13.5
293,2023-03-13T04:52:00,1,西北西,2.3,北北東,8.7,100,0,2,13.5,13.5
294,2023-03-13T04:53:00,1,西,2.3,北北東,8.7,100,0,2,13.5,13.5
295,2023-03-13T04:54:00,0.8,西,2.3,南西,8.7,100,0,2,13.5,13.5
296,2023-03-13T04:55:00,0.8,西南西,2.3,南西,8.7,100,0.5,2.5,14,14
297,2023-03-13T04:56:00,0.9,西南西,2.3,南西,8.8,100,0.5,2.5,14,14
298,2023-03-13T04:57:00,0.9,西南西,2.3,南西,8.7,100,0.5,2.5,14,14
299,2023-03-13T04:58:00,0.9,西南西,2.3,南西,8.7,100,0.5,2.5,14,14
300,2023-03-13T04:59:00,1,南西,2.3,南西,8.7,100,0.5,2.5,14,14
301,2023-03-13T05:00:00,1,南西,2.3,南西,8.7,100,0.5,2.5,14,14
302,2023-03-13T05:01:00,1,南西,2.1,南西,8.7,100,0.5,2.5,14,14
303,2023-03-13T05:02:00,1,南西,2.1,南西,8.7,100,0.5,2.5,14,14
304,2023-03-13T05:03:00,1,南西,2.1,南西,8.8,100,0.5,2.5,14,14
305,2023-03-13T05:04:00,1.1,西南西,2.1,南西,8.8,100,0.5,2.5,14,14
306,2023-03-13T05:05:00,1,西南西,2.1,南西,8.8,100,0,2,14,14
307,2023-03-13T05:06:00,1,西南西,2.1,南西,8.8,100,0,2,14,14
308,2023-03-13T05:07:00,,"",,"",,,,,,
309,2023-03-13T05:08:00,1.1,西南西,3.7,南南西,8.7,100,0,2,14,14
310,2023-03-13T05:09:00,1.1,西南西,3.7,南南西,8.7,100,0,2,14,14
311,2023-03-13T05:10:00,1,西南西,3.7,南南西,8.8,100,0,2,14,14
312,2023-03-13T05:11:00,0.9,西南西,3.7,南南西,8.8,100,0,2,14,14
313,2023-03-13T05:12:00,0.9,南西,3.7,南南西,8.9,100,0,2,14,14
314,2023-03-13T05:13:00,1.1,南西,3.8,南南西,9.1,100,0,2,14,14
315,2023-03-13T05:14:00,1.3,南西,3.8,南南西,9.2,100,0,2,14,14
316,2023-03-13T05:15:00,1.3,南西,3.8,南南西,9.1,100,0,2,14,14
317,2023-03-13T05:16:00,1.3,南西,3.8,南南西,8.9,100,0,2,14,14
318,2023-03-13T05:17:00,1.1,南西,3.8,南南西,8.9,100,0,2,14,14
319,2023-03-13T05:18:00,1,西南西,3.8,南南西,9,100,0,1.5,14,14
320,2023-03-13T05:19:00,1,西南西,3.8,南南西,9,100,0,1.5,14,14
321,2023-03-13T05:20:00,1,西,3.8,南南西,9,100,0,1.5,14,14
322,2023-03-13T05:21:00,0.9,西,3.8,南南西,8.9,100,0,1.5,14,14
323,2023-03-13T05:22:00,0.9,西北西,3.8,南南西,8.8,100,0,1.5,14,14
324,2023-03-13T05:23:00,0.7,西北西,2.9,西南西,8.9,100,0,1.5,14,14
325,2023-03-13T05:24:00,0.5,北西,1.4,北,9,100,0,1.5,14,14
326,2023-03-13T05:25:00,0.5,北北西,1.4,北,8.9,100,0,1.5,14,14
327,2023-03-13T05:26:00,0.5,北北西,1.4,北,9,100,0,1.5,14,14
328,2023-03-13T05:27:00,0.5,北北西,1.4,北,9,100,0,1.5,14,14
329,2023-03-13T05:28:00,0.5,北,1.4,北,9,100,0,1,14,14
330,2023-03-13T05:29:00,0.6,北北西,1.6,南西,9,100,0,1,14,14
331,2023-03-13T05:30:00,0.6,北北西,1.7,南西,8.9,100,0,1,14,14
332,2023-03-13T05:31:00,0.7,北北西,2.1,西南西,8.9,100,0,1,14,14
333,2023-03-13T05:32:00,0.8,西北西,2.1,西南西,8.9,100,0,1,14,14
334,2023-03-13T05:33:00,0.9,西,2.1,西南西,8.9,100,0,1,14,14
335,2023-03-13T05:34:00,1,西南西,2.1,西南西,8.8,100,0,1,14,14
336,2023-03-13T05:35:00,1.1,西南西,2.1,西南西,8.8,100,0,1,14,14
337,2023-03-13T05:36:00,1.3,南西,2.4,南西,8.8,100,0,1,14,14
338,2023-03-13T05:37:00,1.4,南西,2.7,南西,8.8,100,0,0.5,14,14
339,2023-03-13T05:38:00,1.6,南西,2.7,南西,8.9,100,0,0.5,14,14
340,2023-03-13T05:39:00,1.7,南西,2.7,南西,8.9,100,0,0.5,14,14
341,2023-03-13T05:40:00,1.7,南西,2.7,南西,8.9,100,0,0.5,14,14
342,2023-03-13T05:41:00,1.7,南西,2.7,南西,8.9,100,0,0.5,14,14
343,2023-03-13T05:42:00,1.6,南西,2.7,南西,9,100,0,0.5,14,14
344,2023-03-13T05:43:00,1.7,南西,2.7,南西,9.1,100,0,0.5,14,14
345,2023-03-13T05:44:00,1.6,南南西,2.7,南西,9.2,100,0,0.5,14,14
346,2023-03-13T05:45:00,1.6,南南西,2.7,南西,9.1,100,0,0.5,14,14
347,2023-03-13T05:46:00,1.6,南南西,3.1,南,9.2,100,0,0.5,14,14
348,2023-03-13T05:47:00,1.6,南,3.1,南,9.1,100,0,0.5,14,14
349,2023-03-13T05:48:00,1.6,南,3.1,南,9.2,100,0,0.5,14,14
350,2023-03-13T05:49:00,1.6,南,3.1,南,9.2,100,0,0.5,14,14
351,2023-03-13T05:50:00,1.5,南,3.1,南,9.2,100,0,0.5,14,14
352,2023-03-13T05:51:00,1.5,南,3.1,南,9.2,100,0,0.5,14,14
353,2023-03-13T05:52:00,1.6,南,3.5,南西,9.3,100,0,0.5,14,14
354,2023-03-13T05:53:00,1.8,南,3.5,南西,9.5,100,0,0.5,14,14
355,2023-03-13T05:54:00,1.9,南,4,南,9.5,99.8,0,0.5,14,14
356,2023-03-13T05:55:00,2,南南西,4,南,9.5,99.3,0,0,14,14
357,2023-03-13T05:56:00,2,南南西,4,南,9.6,98.6,0,0,14,14
358,2023-03-13T05:57:00,2.1,南南西,4,南,9.6,97.8,0,0,14,14
359,2023-03-13T05:58:00,2.1,南南西,4,南,9.6,96.7,0,0,14,14
360,2023-03-13T05:59:00,2.2,南南西,4,南,9.6,95.7,0,0,14,14
361,2023-03-13T06:00:00,2.2,南南西,4,南,9.4,95,0,0,14,14
362,2023-03-13T06:01:00,2.3,南南西,4,南,9.4,95,0,0,14,14
363,2023-03-13T06:02:00,2.3,南南西,4,南,9.4,95.3,0,0,14,14
364,2023-03-13T06:03:00,2.2,南南西,4,南,9.4,95.4,0,0,14,14
365,2023-03-13T06:04:00,2.2,南南西,3.8,南南西,9.4,95.5,0,0,14,14
366,2023-03-13T06:05:00,2.1,南南西,3.8,南南西,9.5,95.6,0,0,14,14
367,2023-03-13T06:06:00,2,南南西,3.8,南南西,9.4,95.5,0,0,14,14
368,2023-03-13T06:07:00,1.9,南南西,3.8,南南西,9.4,95.4,0,0,14,14
369,2023-03-13T06:08:00,1.8,南南西,3.8,南南西,9.5,95.3,0,0,14,14
370,2023-03-13T06:09:00,1.8,南南西,3.8,南南西,9.5,95.1,0,0,14,14
371,2023-03-13T06:10:00,1.8,南南西,3.8,南南西,9.5,94.6,0,0,14,14
372,2023-03-13T06:11:00,1.8,南南西,3.8,南南西,9.5,94,0,0,14,14
373,2023-03-13T06:12:00,1.8,南南西,3.8,南南西,9.5,93.8,0,0,14,14
374,2023-03-13T06:13:00,1.9,南南西,3.8,南南西,9.5,93.9,0,0,14,14
375,2023-03-13T06:14:00,1.7,南,3.3,南,9.5,94.5,0,0,14,14
376,2023-03-13T06:15:00,1.7,南,3.3,南,9.4,94.7,0,0,14,14
377,2023-03-13T06:16:00,1.7,南,3.3,南,9.3,95.3,0,0,14,14
378,2023-03-13T06:17:00,1.7,南,3.3,南,9.3,95.3,0,0,14,14
379,2023-03-13T06:18:00,1.6,南,3.3,南,9.4,95.4,0,0,14,14
380,2023-03-13T06:19:00,1.5,南,3.3,南,9.4,95.4,0,0,14,14
381,2023-03-13T06:20:00,1.5,南,3.7,南南東,9.4,95.4,0,0,14,14
382,2023-03-13T06:21:00,1.6,南,3.7,南南東,9.4,95.2,0,0,14,14
383,2023-03-13T06:22:00,1.5,南,3.7,南南東,9.4,95,0,0,14,14
384,2023-03-13T06:23:00,1.5,南,3.7,南南東,9.4,94.4,0,0,14,14
385,2023-03-13T06:24:00,1.5,南,3.7,南南東,9.3,94,0,0,14,14
386,2023-03-13T06:25:00,1.5,南,3.7,南南東,9.3,94.4,0,0,14,14
387,2023-03-13T06:26:00,1.6,南,3.7,南南東,9.3,94.5,0,0,14,14
388,2023-03-13T06:27:00,1.5,南,3.7,南南東,9.4,94.6,0,0,14,14
389,2023-03-13T06:28:00,1.6,南,3.7,南南東,9.5,93.9,0,0,14,14
390,2023-03-13T06:29:00,1.6,南,3.7,南南東,9.4,93.3,0,0,14,14
391,2023-03-13T06:30:00,1.8,南,3.6,南,9.5,92.8,0,0,14,14
392,2023-03-13T06:31:00,1.8,南,4.5,南西,9.4,91.7,0,0,14,14
393,2023-03-13T06:32:00,1.8,南,4.5,南西,9.5,91.2,0,0,14,14
394,2023-03-13T06:33:00,1.7,南,4.5,南西,9.5,91,0,0,14,14
395,2023-03-13T06:34:00,1.6,南,4.5,南西,9.6,90.6,0,0,14,14
396,2023-03-13T06:35:00,1.7,南,4.5,南西,9.5,90.2,0,0,14,14
397,2023-03-13T06:36:00,1.6,南,4.5,南西,9.5,89.6,0,0,14,14
398,2023-03-13T06:37:00,1.6,南,4.5,南西,9.5,89.8,0,0,14,14
399,2023-03-13T06:38:00,1.5,南,4.5,南西,9.4,90.1,0,0,14,14
400,2023-03-13T06:39:00,1.4,南,4.5,南西,9.4,90.5,0,0,14,14
401,2023-03-13T06:40:00,1.3,南,4.5,南西,9.4,91.7,0,0,14,14
402,2023-03-13T06:41:00,1.2,南,3,南,9.4,91.7,0,0,14,14
403,2023-03-13T06:42:00,1.3,南,3.2,南南西,9.4,91.7,0,0,14,14
404,2023-03-13T06:43:00,1.4,南,3.2,南南西,9.4,92.1,0,0,14,14